SCP
0 0 0 0 0 0 0 0 0 0 0 0 0 0 0 0 0 0 0 0 0 0 0 0 0 0 0 0 0 0 0 0 0 0 0 0 0 0 0 0 0 0 0
0 0 0 0 0 0 0 0 0 0 0 0 0 0 0 0 0 0 0 0 0 0 0 0 0 0 0 0 0 0 0 0 0 0 0 0 0 0 0 0 0 0 0
0 0 -0 -0 -0 -0 -0 -0 -0 0 0 0 0 0 0 0 0 0 0 0 0 0 0 0 0 0 0 0 0 0 0 0 0 0 0 0 0 0 0 0 0 0 0
0 0 0 0 -0 -0 0 -0 0 0 0 0 0 0 0 0 0 0 0 0 0 0 0 0 0 0 0 0 0 0 0 0 0 0 0 0 0 0 0 0 0 0 0
0 0 0 0 -0 -0 0 0 0 0 0 0 0 0 0 0 0 0 0 0 0 0 0 0 0 0 0 0 0 0 0 0 0 0 0 0 0 0 0 0 0 0 0
0 0 0 0 0 0 0 0 0 0 0 0 0 0 0 0 0 0 0 0 0 0 0 0 0 0 0 0 0 0 0 0 0 0 0 0 0 0 0 0 0 0 0
0 0 0 0 0 0 0 0 0 0 0 0 0 0 0 0 0 0 0 0 0 0 0 0 0 0 0 0 0 0 0 0 0 0 0 0 0 0 0 0 0 0 0
0 0 0 0 0 0 0 0 0 0 0 0 0 0 0 0 0 0 0 0 0 0 0 0 0 0 0 0 0 0 0 0 0 0 0 0 0 0 0 0 0 0 0
0 0 0 0 0 0 0 0 0 0 0 0 0 0 0 0 0 0 0 0 0 0 0 0 0 0 0 0 0 0 0 0 0 0 0 0 0 0 0 0 0 0 0
0 0 0 0 0 0 0 0 0 0 0 0 0 0 0 0 0 0 0 0 0 0 0 0 0 0 0 0 0 0 0 0 0 0 0 0 0 0 0 0 0 0 0
0 0 0 0 0 0 0 0 0 0 0 0 0 0 0 0 0 0 0 0 0 0 0 0 0 0 0 0 0 0 0 0 0 0 0 0 0 0 0 0 0 0 0
0 0 0 0 0 0 0 0 0 0 0 0 0 0 0 0 0 0 0 0 0 0 0 0 0 0 0 0 0 0 0 0 0 0 0 0 0 0 0 0 0 0 0
0 0 0 0 0 0 0 0 0 0 0 0 0 0 0 0 0 0 0 0 0 0 0 0 0 0 0 0 0 0 0 0 0 0 0 0 0 0 0 0 0 0 0
0 0 0 0 0 0 0 0 0 0 0 0 0 0 0 0 0 0 0 0 0 0 0 0 0 0 0 0 0 0 0 0 0 0 0 0 0 0 0 0 0 0 0
0 0 0 0 0 0 0 0 0 0 0 0 0 0 0 0 0 0 0 0 0 0 0 0 0 0 0 0 0 0 0 0 0 0 0 0 0 0 0 0 0 0 0
0 0 0 0 0 0 0 0 0 0 0 0 0 0 0 0 0 0 0 0 0 0 0 0 0 0 0 0 0 0 0 0 0 0 0 0 0 0 0 0 0 0 0
0 0 0 0 0 0 0 0 0 0 0 0 0 0 0 0 0 0 0 0 0 0 0 0 0 0 0 0 0 0 0 0 0 0 0 0 0 0 0 0 0 0 0
0 0 0 0 0 0 0 0 0 0 0 0 0 0 0 0 0 0 0 0 0 0 0 0 0 0 0 0 0 0 0 0 0 0 0 0 0 0 0 0 0 0 0
0 0 0 0 0 0 0 0 0 0 0 0 0 0 0 0 0 0 0 0 0 0 0 0 0 0 0 0 0 0 0 0 0 0 0 0 0 0 0 0 0 0 0
0 0 0 0 0 0 0 0 0 0 0 0 0 0 0 0 0 0 0 0 0 0 0 0 0 0 0 0 0 0 0 0 0 0 0 0 0 0 0 0 0 0 0
0 0 0 0 0 0 0 0 0 0 0 0 0 0 0 0 0 0 0 0 0 0 0 0 0 0 0 0 0 0 0 0 0 0 0 0 0 0 0 0 0 0 0
0 0 0 0 0 0 0 0 0 0 0 0 0 0 0 0 0 0 0 0 0 0 0 0 0 0 0 0 0 0 0 0 0 0 0 0 0 0 0 0 0 0 0
0 0 0 0 0 0 0 0 0 0 0 0 0 0 0 0 0 0 0 0 0 0 0 0 0 0 0 0 0 0 0 0 0 0 0 0 0 0 0 0 0 0 0
0 0 0 0 0 0 0 0 0 0 0 0 0 0 0 0 0 0 0 0 0 0 0 0 0 0 0 0 0 0 0 0 0 0 0 0 0 0 0 0 0 0 0
0 0 0 0 0 0 0 0 0 0 0 0 0 0 0 0 0 0 0 0 0 0 0 0 0 0 0 0 0 0 0 0 0 0 0 0 0 0 0 0 0 0 0
0 0 0 0 0 0 0 0 0 0 0 0 0 0 0 0 0 0 0 0 0 0 0 0 0 0 0 0 0 0 0 0 0 0 0 0 0 0 0 0 0 0 0
Wind_Speed_500mb
21 23 22 18 12 9 8 6 6 9 15 12 10 14 15 19 24 19 20 17 19 19 19 20 19 17 16 16 16 14 10 13 17 21 22 21 22 22 19 17 18 12 14
23 25 22 23 17 15 12 10 16 14 10 11 11 13 18 19 18 18 20 20 20 21 21 23 22 23 22 19 17 15 15 16 18 21 23 24 23 22 19 18 21 22 21
23 24 27 27 22 22 19 17 16 8 7 14 20 20 21 22 19 17 23 21 20 21 23 22 23 23 22 23 23 22 19 19 20 22 22 19 21 25 24 23 23 23 26
12 15 21 19 18 16 10 9 14 7 11 14 15 17 17 19 19 21 21 22 21 21 22 22 22 21 23 24 24 25 25 24 25 25 22 23 23 29 30 28 27 28 28
12 12 14 14 12 13 15 14 10 8 8 10 13 16 20 22 23 23 25 23 25 26 25 25 24 23 23 24 26 28 27 26 27 27 28 32 30 29 32 35 30 30 29
17 14 17 12 13 14 13 15 16 15 15 16 17 21 26 29 29 29 30 30 30 30 30 29 28 29 29 30 30 31 33 31 30 29 30 33 34 37 35 39 39 34 32
15 15 15 17 19 18 19 20 19 18 19 20 22 24 27 31 35 36 33 32 31 31 32 34 34 34 34 35 36 36 37 37 35 34 34 34 35 36 36 36 44 42 38
16 17 15 16 18 20 22 23 23 24 23 23 24 25 28 30 31 31 32 32 33 33 33 34 35 37 37 38 38 38 38 38 38 38 38 37 38 37 37 37 36 43 44
14 16 20 24 26 29 32 30 29 29 27 26 27 28 28 28 29 30 31 33 34 34 35 36 37 38 38 37 38 39 40 40 40 41 41 41 41 40 40 40 35 38 37
17 21 25 31 34 38 39 30 31 29 28 27 28 29 29 30 30 31 32 33 35 36 37 37 37 37 38 39 39 41 41 42 43 46 45 44 44 43 42 42 42 37 37
25 27 28 28 29 28 30 29 28 28 30 30 31 31 33 35 36 37 38 39 41 42 42 43 44 45 45 45 44 44 44 45 46 46 47 48 47 46 45 45 45 41 40
18 18 21 25 31 34 33 32 30 30 31 32 33 34 35 38 39 41 43 43 44 45 46 47 48 49 50 51 51 51 50 50 51 52 52 50 49 49 48 47 47 45 41
16 20 25 30 33 33 32 29 28 26 27 30 33 35 37 40 41 42 44 45 47 49 49 51 52 52 52 52 52 53 54 55 57 58 58 54 53 52 50 49 49 49 44
19 22 27 28 29 28 28 28 27 26 26 28 31 35 38 39 40 40 41 43 44 47 48 50 53 55 56 57 59 59 58 58 57 61 63 59 58 58 56 54 51 50 49
19 21 22 23 24 24 24 23 22 23 25 28 31 33 34 36 39 41 42 43 45 49 50 53 55 58 61 62 63 64 65 65 65 65 67 65 62 62 62 60 58 54 50
16 17 19 21 22 21 21 21 22 23 24 26 29 33 36 38 42 45 47 49 50 51 53 55 57 61 64 65 67 67 68 69 70 70 69 70 69 65 65 64 62 61 57
16 17 17 16 16 18 19 21 23 25 27 29 32 36 41 45 48 50 52 54 57 60 63 63 63 63 63 61 62 61 64 67 72 71 70 71 71 72 69 67 66 64 62
14 14 15 16 17 18 20 22 25 28 31 36 41 46 51 55 58 61 63 64 67 68 66 64 62 62 62 59 62 63 61 63 67 72 76 74 74 74 72 72 70 68 66
15 16 16 16 17 19 21 24 27 32 38 42 47 51 55 59 62 66 67 67 70 69 68 66 64 58 57 59 60 60 63 65 66 66 71 76 78 78 78 77 74 72 70
18 17 18 21 24 27 30 33 36 40 45 49 53 56 60 66 71 75 75 75 75 73 66 62 60 58 56 53 58 64 66 65 67 69 67 68 75 77 78 79 78 78 75
21 21 22 25 29 33 38 44 50 56 58 59 61 63 66 69 72 74 74 73 71 69 66 61 59 57 53 49 58 60 67 79 72 62 62 58 59 63 73 75 75 78 78
24 25 27 30 33 39 45 50 54 59 61 62 63 66 70 74 75 73 71 70 65 61 58 53 50 50 47 41 49 58 58 73 61 42 37 38 42 43 53 62 68 72 75
29 30 30 33 37 42 48 54 57 59 58 58 66 72 75 78 78 74 71 67 63 58 50 51 47 46 53 47 38 38 41 38 68 74 71 64 58 53 50 54 56 52 57
34 32 34 36 40 46 52 56 59 61 57 62 67 69 77 76 74 70 66 62 59 53 50 46 43 45 45 52 45 41 48 65 73 90 71 67 64 59 52 59 68 82 78
36 36 37 38 44 49 54 58 62 64 63 64 61 63 61 55 57 57 56 55 53 52 51 52 52 50 48 50 50 50 51 58 65 70 88 73 66 62 66 71 77 64 64
39 38 40 44 49 54 59 62 66 69 69 65 61 59 54 53 50 47 46 47 48 48 50 53 54 53 52 51 52 52 54 58 62 64 71 75 71 69 69 67 74 81 85
Wind_Direction_500mb
5 22 10 8 20 24 49 74 123 123 95 95 57 10 351 345 351 7 358 354 348 343 339 338 334 332 331 330 330 325 307 280 276 274 275 275 279 278 276 263 254 259 253
37 39 40 37 40 55 69 94 125 115 103 59 10 356 347 346 348 349 346 351 349 342 337 335 333 332 329 324 319 314 307 293 284 280 283 285 281 281 274 276 260 260 257
69 62 56 54 51 65 78 68 48 103 58 344 335 326 326 324 334 339 342 345 346 341 338 333 328 326 325 324 321 316 309 298 289 284 283 284 284 280 276 272 270 266 261
80 61 61 55 56 59 48 23 29 35 341 348 332 318 324 327 329 328 334 334 331 330 328 325 324 324 322 321 318 316 312 307 300 293 289 282 279 280 277 272 269 266 260
42 67 46 37 52 51 45 46 44 25 349 342 341 329 326 327 323 325 323 324 321 319 316 312 311 310 311 311 311 310 309 307 301 296 290 285 282 281 279 280 274 272 267
73 71 56 30 28 23 12 352 347 357 347 344 333 324 323 320 318 315 314 317 316 315 313 309 306 306 307 307 308 307 306 303 298 293 290 286 286 284 286 284 284 279 275
53 35 27 5 11 4 358 345 341 337 331 323 317 316 316 316 313 313 314 314 313 310 307 306 307 305 305 304 304 304 303 303 301 296 291 286 283 283 285 286 290 289 284
9 10 359 356 355 345 343 331 334 328 327 325 319 319 318 317 315 313 314 312 310 308 305 303 301 300 300 299 297 296 295 294 294 293 291 287 282 279 277 277 283 287 287
349 347 350 343 340 337 324 325 325 321 319 318 316 316 313 311 308 309 309 310 309 307 305 304 303 302 299 298 297 296 295 294 292 291 290 289 286 282 276 272 269 278 279
333 336 336 329 323 324 325 325 324 322 319 315 310 307 305 303 301 300 299 298 299 300 301 300 298 295 294 293 292 290 289 289 290 291 290 288 287 284 279 273 267 265 267
308 315 314 319 328 331 328 329 325 320 316 315 314 313 312 311 310 309 307 305 303 301 300 300 300 299 297 294 292 290 288 286 283 282 284 286 286 285 282 277 271 262 262
292 301 308 315 319 322 325 325 320 320 318 318 319 319 318 317 315 313 311 309 306 303 302 301 300 299 299 298 296 293 290 287 284 282 280 278 278 278 279 276 271 264 253
299 309 316 319 321 324 327 332 331 326 320 317 317 317 318 318 316 315 313 311 308 305 304 303 302 301 299 299 296 295 294 291 289 286 282 280 278 275 271 269 267 263 251
310 315 317 319 323 329 333 335 336 336 333 328 324 323 323 323 323 322 321 319 315 311 308 305 303 300 299 297 297 296 295 293 290 288 285 282 279 277 274 269 264 261 256
309 316 323 331 333 337 342 343 343 341 339 339 337 336 334 333 331 330 327 323 318 314 310 307 305 302 299 297 294 292 291 290 289 288 286 283 279 276 274 272 268 261 257
314 320 329 333 337 345 349 352 354 354 353 348 342 339 338 335 332 329 326 323 319 315 313 310 307 304 301 299 296 294 291 287 286 285 284 283 280 276 272 271 269 265 257
311 319 319 322 337 345 349 350 350 348 344 339 334 331 330 328 327 325 322 318 315 313 311 309 305 302 299 296 294 293 290 288 286 284 282 279 279 277 273 270 267 264 260
304 311 324 333 338 338 339 339 338 336 334 332 330 330 329 328 327 326 324 322 319 317 314 311 308 304 301 298 295 291 287 284 283 282 281 279 277 275 275 271 266 264 259
294 301 306 309 310 316 320 324 327 327 327 326 326 324 324 323 324 324 323 320 318 316 313 312 309 308 306 301 298 293 288 283 280 277 275 277 275 275 272 270 267 261 257
285 289 297 305 312 316 319 321 320 322 325 326 324 323 325 325 325 325 324 322 321 319 316 313 310 308 305 304 301 295 291 287 282 277 273 271 272 272 271 267 264 260 254
274 282 291 301 308 312 315 321 324 328 329 327 325 324 323 322 322 321 318 316 314 312 311 311 311 311 309 308 308 300 293 285 291 283 273 273 271 268 266 263 259 257 254
270 280 291 299 308 316 323 325 325 322 318 317 317 319 322 323 323 322 320 317 315 312 310 308 309 308 305 307 307 305 305 297 294 286 271 274 275 275 271 263 257 253 250
269 277 288 300 309 316 322 324 322 321 320 321 322 323 323 323 321 319 317 313 311 309 306 307 306 306 304 305 301 292 303 286 307 280 285 282 277 272 268 264 261 261 256
265 277 288 301 312 318 321 322 325 325 321 321 321 321 321 319 317 315 313 310 307 304 302 301 301 299 299 298 297 288 277 281 289 296 286 280 277 274 267 262 262 263 263
267 276 285 299 308 314 318 323 323 323 322 321 318 317 316 315 314 313 313 310 306 303 300 300 301 300 297 294 293 292 285 285 283 280 286 290 280 274 270 265 259 262 261
269 279 291 301 307 313 318 322 324 323 322 319 317 315 314 312 311 309 307 305 303 301 300 299 299 297 294 290 287 284 282 283 285 284 283 286 283 281 275 269 260 255 253
Wind_Speed_850mb
21 23 22 18 12 9 8 6 6 9 15 12 10 14 15 19 24 19 20 17 19 19 19 20 19 17 16 16 16 14 10 13 17 21 22 21 22 22 19 17 18 12 14
23 25 22 23 17 15 12 10 16 14 10 11 11 13 18 19 18 18 20 20 20 21 21 23 22 23 22 19 17 15 15 16 18 21 23 24 23 22 19 18 21 22 21
23 24 27 27 22 22 19 17 16 8 7 14 20 20 21 22 19 17 23 21 20 21 23 22 23 23 22 23 23 22 19 19 20 22 22 19 21 25 24 23 23 23 26
12 15 21 19 18 16 10 9 14 7 11 14 15 17 17 19 19 21 21 22 21 21 22 22 22 21 23 24 24 25 25 24 25 25 22 23 23 29 30 28 27 28 28
12 12 14 14 12 13 15 14 10 8 8 10 13 16 20 22 23 23 25 23 25 26 25 25 24 23 23 24 26 28 27 26 27 27 28 32 30 29 32 35 30 30 29
17 14 17 12 13 14 13 15 16 15 15 16 17 21 26 29 29 29 30 30 30 30 30 29 28 29 29 30 30 31 33 31 30 29 30 33 34 37 35 39 39 34 32
15 15 15 17 19 18 19 20 19 18 19 20 22 24 27 31 35 36 33 32 31 31 32 34 34 34 34 35 36 36 37 37 35 34 34 34 35 36 36 36 44 42 38
16 17 15 16 18 20 22 23 23 24 23 23 24 25 28 30 31 31 32 32 33 33 33 34 35 37 37 38 38 38 38 38 38 38 38 37 38 37 37 37 36 43 44
14 16 20 24 26 29 32 30 29 29 27 26 27 28 28 28 29 30 31 33 34 34 35 36 37 38 38 37 38 39 40 40 40 41 41 41 41 40 40 40 35 38 37
17 21 25 31 34 38 39 30 31 29 28 27 28 29 29 30 30 31 32 33 35 36 37 37 37 37 38 39 39 41 41 42 43 46 45 44 44 43 42 42 42 37 37
25 27 28 28 29 28 30 29 28 28 30 30 31 31 33 35 36 37 38 39 41 42 42 43 44 45 45 45 44 44 44 45 46 46 47 48 47 46 45 45 45 41 40
18 18 21 25 31 34 33 32 30 30 31 32 33 34 35 38 39 41 43 43 44 45 46 47 48 49 50 51 51 51 50 50 51 52 52 50 49 49 48 47 47 45 41
16 20 25 30 33 33 32 29 28 26 27 30 33 35 37 40 41 42 44 45 47 49 49 51 52 52 52 52 52 53 54 55 57 58 58 54 53 52 50 49 49 49 44
19 22 27 28 29 28 28 28 27 26 26 28 31 35 38 39 40 40 41 43 44 47 48 50 53 55 56 57 59 59 58 58 57 61 63 59 58 58 56 54 51 50 49
19 21 22 23 24 24 24 23 22 23 25 28 31 33 34 36 39 41 42 43 45 49 50 53 55 58 61 62 63 64 65 65 65 65 67 65 62 62 62 60 58 54 50
16 17 19 21 22 21 21 21 22 23 24 26 29 33 36 38 42 45 47 49 50 51 53 55 57 61 64 65 67 67 68 69 70 70 69 70 69 65 65 64 62 61 57
16 17 17 16 16 18 19 21 23 25 27 29 32 36 41 45 48 50 52 54 57 60 63 63 63 63 63 61 62 61 64 67 72 71 70 71 71 72 69 67 66 64 62
14 14 15 16 17 18 20 22 25 28 31 36 41 46 51 55 58 61 63 64 67 68 66 64 62 62 62 59 62 63 61 63 67 72 76 74 74 74 72 72 70 68 66
15 16 16 16 17 19 21 24 27 32 38 42 47 51 55 59 62 66 67 67 70 69 68 66 64 58 57 59 60 60 63 65 66 66 71 76 78 78 78 77 74 72 70
18 17 18 21 24 27 30 33 36 40 45 49 53 56 60 66 71 75 75 75 75 73 66 62 60 58 56 53 58 64 66 65 67 69 67 68 75 77 78 79 78 78 75
21 21 22 25 29 33 38 44 50 56 58 59 61 63 66 69 72 74 74 73 71 69 66 61 59 57 53 49 58 60 67 79 72 62 62 58 59 63 73 75 75 78 78
24 25 27 30 33 39 45 50 54 59 61 62 63 66 70 74 75 73 71 70 65 61 58 53 50 50 47 41 49 58 58 73 61 42 37 38 42 43 53 62 68 72 75
29 30 30 33 37 42 48 54 57 59 58 58 66 72 75 78 78 74 71 67 63 58 50 51 47 46 53 47 38 38 41 38 68 74 71 64 58 53 50 54 56 52 57
34 32 34 36 40 46 52 56 59 61 57 62 67 69 77 76 74 70 66 62 59 53 50 46 43 45 45 52 45 41 48 65 73 90 71 67 64 59 52 59 68 82 78
36 36 37 38 44 49 54 58 62 64 63 64 61 63 61 55 57 57 56 55 53 52 51 52 52 50 48 50 50 50 51 58 65 70 88 73 66 62 66 71 77 64 64
39 38 40 44 49 54 59 62 66 69 69 65 61 59 54 53 50 47 46 47 48 48 50 53 54 53 52 51 52 52 54 58 62 64 71 75 71 69 69 67 74 81 85
Wind_Direction_850mb
5 22 10 8 20 24 49 74 123 123 95 95 57 10 351 345 351 7 358 354 348 343 339 338 334 332 331 330 330 325 307 280 276 274 275 275 279 278 276 263 254 259 253
37 39 40 37 40 55 69 94 125 115 103 59 10 356 347 346 348 349 346 351 349 342 337 335 333 332 329 324 319 314 307 293 284 280 283 285 281 281 274 276 260 260 257
69 62 56 54 51 65 78 68 48 103 58 344 335 326 326 324 334 339 342 345 346 341 338 333 328 326 325 324 321 316 309 298 289 284 283 284 284 280 276 272 270 266 261
80 61 61 55 56 59 48 23 29 35 341 348 332 318 324 327 329 328 334 334 331 330 328 325 324 324 322 321 318 316 312 307 300 293 289 282 279 280 277 272 269 266 260
42 67 46 37 52 51 45 46 44 25 349 342 341 329 326 327 323 325 323 324 321 319 316 312 311 310 311 311 311 310 309 307 301 296 290 285 282 281 279 280 274 272 267
73 71 56 30 28 23 12 352 347 357 347 344 333 324 323 320 318 315 314 317 316 315 313 309 306 306 307 307 308 307 306 303 298 293 290 286 286 284 286 284 284 279 275
53 35 27 5 11 4 358 345 341 337 331 323 317 316 316 316 313 313 314 314 313 310 307 306 307 305 305 304 304 304 303 303 301 296 291 286 283 283 285 286 290 289 284
9 10 359 356 355 345 343 331 334 328 327 325 319 319 318 317 315 313 314 312 310 308 305 303 301 300 300 299 297 296 295 294 294 293 291 287 282 279 277 277 283 287 287
349 347 350 343 340 337 324 325 325 321 319 318 316 316 313 311 308 309 309 310 309 307 305 304 303 302 299 298 297 296 295 294 292 291 290 289 286 282 276 272 269 278 279
333 336 336 329 323 324 325 325 324 322 319 315 310 307 305 303 301 300 299 298 299 300 301 300 298 295 294 293 292 290 289 289 290 291 290 288 287 284 279 273 267 265 267
308 315 314 319 328 331 328 329 325 320 316 315 314 313 312 311 310 309 307 305 303 301 300 300 300 299 297 294 292 290 288 286 283 282 284 286 286 285 282 277 271 262 262
292 301 308 315 319 322 325 325 320 320 318 318 319 319 318 317 315 313 311 309 306 303 302 301 300 299 299 298 296 293 290 287 284 282 280 278 278 278 279 276 271 264 253
299 309 316 319 321 324 327 332 331 326 320 317 317 317 318 318 316 315 313 311 308 305 304 303 302 301 299 299 296 295 294 291 289 286 282 280 278 275 271 269 267 263 251
310 315 317 319 323 329 333 335 336 336 333 328 324 323 323 323 323 322 321 319 315 311 308 305 303 300 299 297 297 296 295 293 290 288 285 282 279 277 274 269 264 261 256
309 316 323 331 333 337 342 343 343 341 339 339 337 336 334 333 331 330 327 323 318 314 310 307 305 302 299 297 294 292 291 290 289 288 286 283 279 276 274 272 268 261 257
314 320 329 333 337 345 349 352 354 354 353 348 342 339 338 335 332 329 326 323 319 315 313 310 307 304 301 299 296 294 291 287 286 285 284 283 280 276 272 271 269 265 257
311 319 319 322 337 345 349 350 350 348 344 339 334 331 330 328 327 325 322 318 315 313 311 309 305 302 299 296 294 293 290 288 286 284 282 279 279 277 273 270 267 264 260
304 311 324 333 338 338 339 339 338 336 334 332 330 330 329 328 327 326 324 322 319 317 314 311 308 304 301 298 295 291 287 284 283 282 281 279 277 275 275 271 266 264 259
294 301 306 309 310 316 320 324 327 327 327 326 326 324 324 323 324 324 323 320 318 316 313 312 309 308 306 301 298 293 288 283 280 277 275 277 275 275 272 270 267 261 257
285 289 297 305 312 316 319 321 320 322 325 326 324 323 325 325 325 325 324 322 321 319 316 313 310 308 305 304 301 295 291 287 282 277 273 271 272 272 271 267 264 260 254
274 282 291 301 308 312 315 321 324 328 329 327 325 324 323 322 322 321 318 316 314 312 311 311 311 311 309 308 308 300 293 285 291 283 273 273 271 268 266 263 259 257 254
270 280 291 299 308 316 323 325 325 322 318 317 317 319 322 323 323 322 320 317 315 312 310 308 309 308 305 307 307 305 305 297 294 286 271 274 275 275 271 263 257 253 250
269 277 288 300 309 316 322 324 322 321 320 321 322 323 323 323 321 319 317 313 311 309 306 307 306 306 304 305 301 292 303 286 307 280 285 282 277 272 268 264 261 261 256
265 277 288 301 312 318 321 322 325 325 321 321 321 321 321 319 317 315 313 310 307 304 302 301 301 299 299 298 297 288 277 281 289 296 286 280 277 274 267 262 262 263 263
267 276 285 299 308 314 318 323 323 323 322 321 318 317 316 315 314 313 313 310 306 303 300 300 301 300 297 294 293 292 285 285 283 280 286 290 280 274 270 265 259 262 261
269 279 291 301 307 313 318 322 324 323 322 319 317 315 314 312 311 309 307 305 303 301 300 299 299 297 294 290 287 284 282 283 285 284 283 286 283 281 275 269 260 255 253